OPS 4682 DEB, 19511

Orbit data source: Space-Track

OPS 4682 DEB, 19511 is space debris in LEO originally from a launch on Sat, 03 Apr 1965 UTC launched from the Air Force Western Test Range (AFWTR). Debris objects in space refer to the collection of defunct objects orbiting the Earth. Examples of debris include non-operational satellites, rocket bodies, and fragments generated from explosions, collisions, or faulty payload assembly.

Loading next visibility...
Identifier
19511, 1965-027AU
Orbit
LEO
Country
Flag of USUS
Related business
Manufacturer
Unknown
Mission
Spacecraft
Bus & Motor
Unknown
Mass
Unknown
Launch date (UTC)
1965-04-03 (61 years ago)
Launch vehicle
Unknown
Launch site
Air Force Western Test Range (AFWTR)
Object type
Payload
Rocket body
Debris
Shape & HBR
Unknown shape, 0.1 m
Radar Cross Section
Small (<0.1 m²)

Expand to show TLE details & history
Last TLE update: 8 hours ago

TLE from 8 hours ago
0 OPS 4682 DEB
1 19511U 65027AU  26119.38580661 -.00000334  00000-0 -11695-2 0  9999
2 19511  90.2371 357.4758 0028684 177.3260 234.9300 12.97848422795575
Epoch: 2026-04-29T09:15Z
TLE epoch observation values (Epoch: 2026-04-29T09:15:33.691Z)
Latitude
52.07834°
Longitude
0.93509°
Altitude
1,291.66 km
Speed
7.209 km/s
True Right ascension
23h 48m 41s
True Declination
51° 55' 23"
Sunlit
Object was in daylight at epoch
Visualization orbit readout
Latitude
Unknown
Longitude
Unknown
Altitude
Unknown
Speed
Unknown
Apparent Right ascension
Unknown
Apparent Declination
Unknown
Sunlit
N/A
Visualization observer readout
Local Sidereal Time
00:35:07
Azimuth
Unknown
Elevation
Unknown
Doppler factor
Unknown
Orbital elements
Apogee altitude
1,289.59 km
Perigee altitude
1,245.727 km
Semi-major axis
7,645.795 km
Eccentricity
0.00287
Inclination
90.2371°
RAAN
357.4758°
Arg. of periapsis
177.326°
True anomaly
234.66153°
Mean anomaly
234.93°
Eccentric anomaly
234.79571°
Mean motion
3.24645 °/min
Orbital period
110.89 mins
BSTAR
-0.0011695
Loading maneuver chart data...
Computing Atmospheric mass density...
Loading historical data...
Loading historical data...
Loading historical data...
Loading historical data...
Loading historical data...
Loading historical data...
Loading historical data...

Documentation

Showing up to 5 results
|